Regional Weather Roundup
Issued by NWS

Home | Current Version | Previous Version | Graphics & Text | Print | Product List | Glossary On
Versions: 1 2 3 4 5 6 7 8 9 10 11 12 13 14 15 16 17 18 19 20 21 22 23 24 25 26 27 28 29 30 31 32 33 34 35 36 37 38 39 40 41 42 43 44 45 46 47 48 49 50
778
ASUS44 KJAN 241710
RWRMS

MISSISSIPPI HOURLY WEATHER ROUNDUP
NATIONAL WEATHER SERVICE JACKSON MS
1200 PM CDT THU APR 24 2014

NOTE: "FAIR: INDICATES FEW OR NO CLOUDS BELOW 12,000 FEET WITH NO
SIGNIFICANT WEATHER AND/OR OBSTRUCTIONS TO VISIBILITY.

MSZ001>002-007>008-010>013-018>021-025>028-034>036-241800-
NORTHWEST MISSISSIPPI

CITY           SKY/WX    TMP DP  RH WIND       PRES   REMARKS
CLARKSDALE       N/A     75  55  50 S10       29.90F
CLEVELAND      FAIR      75  63  65 S9        29.90S
GREENWOOD      MOSUNNY   80  57  45 S9        29.90F
GREENVILLE     CLOUDY    76  60  57 SW16      29.90S
GRENADA        FAIR      79  54  41 SW9       29.91F
OLIVE BRANCH   CLOUDY    73  52  46 S16       29.91S
OXFORD         FAIR      77  48  36 S6        29.92F
TUNICA         CLOUDY    75  50  41 S13       29.90S
$$

MSZ003>006-009-014>017-022>024-029>033-037>039-241800-
NORTHEAST MISSISSIPPI

CITY           SKY/WX    TMP DP  RH WIND       PRES   REMARKS
BELMONT        FAIR      78  49  35 S12       29.93F
COLUMBUS AFB   SUNNY     80  49  33 S10       29.94F
CORINTH        FAIR      75  46  35 S10G16    29.91F
GOLDN TRIANGLE SUNNY     79  54  41 S10       29.97F
STARKVILLE     FAIR      77  55  47 SE6       29.94F
TUPELO         MOSUNNY   79  50  36 SW14      29.92F
$$

MSZ040-058-241800-
CENTRAL MISSISSIPPI

CITY           SKY/WX    TMP DP  RH WIND       PRES   REMARKS
JACKSON INTL   MOSUNNY   80  59  48 S15G24    29.92F
JACKSON HAWKNS MOSUNNY   81  59  47 S15G21    29.93F
MERIDIAN KEY   MOSUNNY   81  57  43 S8G18     29.95F
MERIDIAN NAS   PTSUNNY   80  58  46 VRB6      29.95F
RAYMOND        FAIR      81  75  83 S15G25    29.92F
VICKSBURG      MOSUNNY   78  60  53 SW9G21    29.92S
$$

MSZ059>079-241800-
SOUTH MISSISSIPPI

CITY           SKY/WX    TMP DP  RH WIND       PRES   REMARKS
BROOKHAVEN     FAIR      79  61  53 S10G17    29.96F
HATTIESBURG    MOSUNNY   81  60  48 S9        29.97F
MCCOMB         MOSUNNY   77  62  59 S13       29.95F
NATCHEZ        MOSUNNY   79  63  57 S12G18    29.93F
PINE BELT      MOSUNNY   79  61  53 S13       29.98F
$$

MSZ080>082-241800-
COASTAL MISSISSIPPI

CITY           SKY/WX    TMP DP  RH WIND       PRES   REMARKS
BAY ST LOUIS   MOSUNNY   79  59  50 S12       29.99S
BILOXI         MOSUNNY   76  66  73 S9        29.99F
PASCAGOULA     SUNNY     78  66  66 SW7       29.99F
GULFPORT       MOSUNNY   78  64  61 SE10      29.98F
$$



USA.gov is the U.S. government's official web portal to all federal, state and local government web resources and services.